Weather History for KLOL - May, 2009

Change the Weather History Date:

Wednesday, May 13, 2009

  Actual Average Record
Temperature  
Mean Temperature 58 °F -  
Max Temperature 73 °F 75 °F 94 °F (1976)
Min Temperature 43 °F 42 °F 27 °F (2008)
Degree Days  
Heating Degree Days 7    
Growing Degree Days 8 (Base 50)    
Moisture  
Dew Point 17 °F    
Average Humidity 20    
Maximum Humidity 32    
Minimum Humidity 11    
Precipitation  
Precipitation 0.00 in - - ()
Sea Level Pressure  
Sea Level Pressure 30.02 in    
Wind  
Wind Speed 7 mph (NNE)    
Max Wind Speed 15 mph    
Max Gust Speed 21 mph    
Visibility 10 miles    
Events      
Averages and records for this station are not official NWS values.
T = Trace of Precipitation, MM = Missing Value Source: NWS Daily Summary

Daily Weather History Graph

Daily Weather History Graph

Search for Another Location

Airport or City:

Trip Planner

Search our weather history database for the weather conditions in past years. The results will help you decide how hot, cold, wet, or windy it might be!

Date:

Astronomy

May. 13, 2009 Rise Set
Actual Time 5:40 AM PDT 8:01 PM PDT
Civil Twilight 5:09 AM PDT 8:31 PM PDT
Nautical Twilight 4:32 AM PDT 9:09 PM PDT
Astronomical Twilight 3:50 AM PDT 9:51 PM PDT
Moon No Moon Rise 8:56 AM PDT (5/13)
Length of Visible Light 15h 22m
Length of Day
14h 20m
Waning Gibbous, 81% of the Moon is Illuminated
May 13
Waning Gibbous
May 17
Last Quarter
May 24
New
May 30
First Quarter
Jun 7
Full

Hourly Weather History & Observations

Time (PDT) Temp. Windchill Dew Point Humidity Pressure Visibility Wind Dir Wind Speed Gust Speed Precip Events Conditions
12:53 AM 48.0 °F - 10.0 °F 22% 30.04 in 10.0 mi North 4.6 mph - N/A   Clear
1:53 AM 45.0 °F 43.5 °F 10.9 °F 25% 30.04 in 10.0 mi East 3.5 mph - N/A   Clear
2:53 AM 48.0 °F - 12.9 °F 24% 30.04 in 10.0 mi NNE 9.2 mph - N/A   Clear
3:53 AM 46.0 °F 40.2 °F 12.9 °F 26% 30.05 in 10.0 mi NE 12.7 mph - N/A   Clear
4:53 AM 44.1 °F 38.1 °F 14.0 °F 30% 30.07 in 10.0 mi NE 11.5 mph - N/A   Clear
5:53 AM 43.0 °F 37.2 °F 15.1 °F 32% 30.08 in 10.0 mi NE 10.4 mph - N/A   Clear
6:53 AM 46.9 °F - 16.0 °F 29% 30.10 in 10.0 mi NE 10.4 mph - N/A   Clear
7:53 AM 48.9 °F - 17.1 °F 28% 30.11 in 10.0 mi NNE 12.7 mph - N/A   Clear
8:53 AM 54.0 °F - 17.1 °F 23% 30.10 in 10.0 mi NNE 10.4 mph - N/A   Clear
9:53 AM 57.9 °F - 15.1 °F 19% 30.10 in 10.0 mi NE 5.8 mph - N/A   Clear
10:53 AM 61.0 °F - 12.9 °F 15% 30.09 in 10.0 mi Calm Calm - N/A   Clear
11:53 AM 62.1 °F - 14.0 °F 15% 30.06 in 10.0 mi Calm Calm - N/A   Clear
12:53 PM 66.0 °F - 14.0 °F 13% 30.04 in 10.0 mi Variable 4.6 mph - N/A   Clear
1:53 PM 68.0 °F - 14.0 °F 12% 30.02 in 10.0 mi SW 5.8 mph - N/A   Clear
2:53 PM 70.0 °F - 14.0 °F 12% 29.99 in 10.0 mi Variable 5.8 mph 17.3 mph N/A   Clear
3:53 PM 72.0 °F - 15.1 °F 11% 29.96 in 10.0 mi South 8.1 mph - N/A   Clear
4:53 PM 73.9 °F - 15.1 °F 11% 29.94 in 10.0 mi ENE 5.8 mph - N/A   Clear
5:53 PM 73.0 °F - 17.1 °F 12% 29.92 in 10.0 mi South 6.9 mph - N/A   Clear
6:53 PM 72.0 °F - 17.1 °F 12% 29.92 in 10.0 mi SSW 3.5 mph - N/A   Mostly Cloudy
7:53 PM 69.1 °F - 21.0 °F 16% 29.93 in 10.0 mi WNW 5.8 mph - N/A   Overcast
8:53 PM 69.1 °F - 28.9 °F 22% 29.93 in 10.0 mi WNW 15.0 mph - N/A   Overcast
9:53 PM 66.9 °F - 30.0 °F 25% 29.95 in 10.0 mi WNW 13.8 mph 20.7 mph N/A   Scattered Clouds
10:53 PM 64.9 °F - 30.9 °F 28% 29.97 in 10.0 mi WNW 11.5 mph - N/A   Clear
11:53 PM 63.0 °F - 30.9 °F 30% 29.98 in 10.0 mi East 5.8 mph - N/A   Clear